This demonstration page uses our WeatherBlox Daily Observations layout. Learn more.

38.89511, -77.03637

Hourly Observations for January 15, 2015

Temp ( °F °C ) Dew Point ( °F °C ) Humidity (%) Winds ( mph kmh ) Pressure ( in mb ) Visibility ( mi km ) Precip ( " mm )
12:52 am 00:52 Cloudy 32 0 21 -6 64 64 NW 9 15 30.24 1024 10 16.09344 0 0
1:52 am 01:52 Cloudy 32 0 21 -6 64 64 NNW 10 17 30.24 1024 10 16.09344 0 0
2:52 am 02:52 Cloudy 32 0 21 -6 64 64 NNW 7 11 30.24 1024 10 16.09344 0 0
3:52 am 03:52 Cloudy 32 0 21 -6 64 64 NNW 7 11 30.21 1023 10 16.09344 0 0
4:52 am 04:52 Cloudy 32 0 21 -6 64 64 NNW 6 9 30.21 1023 10 16.09344 0 0
5:52 am 05:52 Cloudy 32 0 21 -6 64 64 NNW 6 9 30.21 1023 10 16.09344 0 0
6:52 am 06:52 Cloudy 34 1 21 -6 60 60 N 5 7 30.21 1023 10 16.09344 0 0
7:52 am 07:52 Cloudy 34 1 21 -6 60 60 NNW 5 7 30.21 1023 9 14.484096 0 0
8:52 am 08:52 Mostly Cloudy 34 1 21 -6 60 60 NW 6 9 30.21 1023 10 16.09344 0 0
9:52 am 09:52 Mostly Cloudy 36 2 21 -6 56 56 NNW 5 7 30.21 1023 10 16.09344 0 0
10:37 am 10:37 Cloudy 36 2 19 -7 52 52 NW 8 13 30.21 1023 10 16.09344 0 0
10:52 am 10:52 Cloudy 36 2 21 -6 56 56 NW 7 11 30.21 1023 10 16.09344 0 0
11:52 am 11:52 Cloudy 37 3 19 -7 48 48 WNW 6 9 30.15 1021 10 16.09344 0 0
12:43 pm 12:43 Partly Cloudy 39 4 21 -6 48 48 SW 6 9 30.12 1020 10 16.09344 0 0
12:52 pm 12:52 Partly Cloudy 39 4 21 -6 48 48 N 7 11 30.12 1020 10 16.09344 0 0
1:52 pm 13:52 Partly Cloudy 41 5 21 -6 45 45 N 6 9 30.09 1019 10 16.09344 0 0
2:52 pm 14:52 Mostly Cloudy 39 4 23 -5 52 52 SW 8 13 30.09 1019 10 16.09344 0 0
3:52 pm 15:52 Cloudy 39 4 25 -4 56 56 WSW 7 11 30.09 1019 10 16.09344 0 0
4:52 pm 16:52 Mostly Cloudy 39 4 25 -4 56 56 WSW 8 13 30.09 1019 10 16.09344 0 0
5:52 pm 17:52 Partly Cloudy 37 3 25 -4 60 60 SW 3 6 30.09 1019 10 16.09344 0 0
6:52 pm 18:52 Clear 36 2 25 -4 65 65 SW 5 7 30.06 1018 10 16.09344 0 0
7:52 pm 19:52 Clear 34 1 25 -4 70 70 SSW 6 9 30.06 1018 10 16.09344 0 0
8:52 pm 20:52 Clear 34 1 25 -4 70 70 SSW 6 9 30.06 1018 10 16.09344 0 0
9:52 pm 21:52 Clear 34 1 25 -4 70 70 SSW 7 11 30.03 1017 10 16.09344 0 0
10:52 pm 22:52 Clear 34 1 27 -3 75 75 Calm 30.03 1017 10 16.09344 0 0
11:52 pm 23:52 Clear 32 0 27 -3 80 80 Calm 30.03 1017 10 16.09344 0 0

Powered by AerisWeather